Content
SEND FEEDBACK

Daily
Averages
Monthly
Summary
United States of America

MANGILAO, GUAM


Home > North America > United States > Guam
Elevation: 18 meters     Latitude: 13 27N     Longitude: 144 49E

WEATHER
 
SELECT A DAY
Number of Records: 341,524;   Date Range: 1/1/95 - 7/7/14
 
SHARE

PRINT THIS DATA

[ ← Previous Day ]
WEATHER ALMANAC - 19 JANUARY, 2013
[ Next Day → ]
[ °F ]   °C
Weather ElementAverageHighLow
Temperature25.9 °C29 °C (12:01 pm)24 °C (6:39 pm)
Dewpoint22.1 °C24 °C (9:03 pm)17.5 °C (1:55 pm)
Humidity79.6 %94 % (9:25 pm)51 % (2:09 pm)
Barometer1010.8 hPa1012.9 hPa (8:55 am)1008.8 hPa (2:41 pm)
Wind Speed27.8 km/h40.7 km/h (6:09 pm)
Wind Gust48.1 km/h (6:09 pm)
Weather ElementAverage
Visibility16.1 km
Wind DirectionNE (40.2 °)

Weather ElementTotal
Precipitation---
Cooling Degree Days8.2 (Base 18.3)
Growing Degree Days16.5 (Base 10)
Averaged from 88 records on 19 January, 2013
WEATHER CONDITIONS BREAKOUT
WIND DIRECTION BREAKOUT
WEATHER BY HOUR - 19 JANUARY, 2013
[ °F ]   °C
Local TimeTemperatureDewpointHumidityBarometerVisibilityWind DirectionWind SpeedGust SpeedPrecipitationEventsConditions
12:55 AM25.9 °C21.4 °C76 %1011.5 hPa16.1 kmNNE (20°)18.5 km/hMostly Cloudy
1:00 AM26 °C22 °C78 %1011.5 hPa16.1 kmNNE (30°)22.2 km/hMostly Cloudy
1:55 AM25.6 °C21.6 °C78 %1011.2 hPa16.1 kmNNE (20°)22.2 km/hScattered Clouds
2:48 AM26 °C22 °C78 %1010.5 hPa16.1 kmNNE (30°)20.4 km/hMostly Cloudy
2:50 AM26 °C22 °C78 %1010.5 hPa16.1 kmNNE (30°)20.4 km/hMostly Cloudy
2:55 AM25.6 °C21.6 °C78 %1010.5 hPa16.1 kmNNE (20°)18.5 km/hMostly Cloudy
3:28 AM26 °C22 °C78 %1010.5 hPa16.1 kmNNE (20°)25.9 km/hOvercast
3:37 AM26 °C22 °C78 %1010.5 hPa16.1 kmNNE (30°)24.1 km/hMostly Cloudy
3:47 AM26 °C22 °C78 %1010.5 hPa16.1 kmNNE (30°)22.2 km/hMostly Cloudy
3:54 AM26 °C22 °C78 %1010.5 hPa16.1 kmNNE (30°)22.2 km/hMostly Cloudy
3:55 AM25.8 °C21.5 °C77 %1010.5 hPa16.1 kmNNE (30°)24.1 km/hMostly Cloudy
4:55 AM25.7 °C22.2 °C81 %1010.8 hPa16.1 kmNNE (30°)24.1 km/hMostly Cloudy
5:10 AM26 °C22 °C78 %1010.8 hPa16.1 kmNNE (30°)22.2 km/hScattered Clouds
5:55 AM25.3 °C21.6 °C80 %1010.8 hPa16.1 kmNNE (30°)25.9 km/hClear
6:55 AM25.4 °C21.9 °C81 %1011.9 hPa16.1 kmNE (40°)25.9 km/hScattered Clouds
7:55 AM26.1 °C22.2 °C79 %1012.5 hPa16.1 kmNE (40°)27.8 km/hPartly Cloudy
8:55 AM27 °C21.9 °C73 %1012.9 hPa16.1 kmNE (40°)31.5 km/hScattered Clouds
9:55 AM28 °C22 °C70 %1012.5 hPa16.1 kmNE (40°)29.6 km/hPartly Cloudy
10:55 AM28.4 °C21.8 °C67 %1011.9 hPa16.1 kmNE (40°)29.6 km/hPartly Cloudy
11:53 AM28 °C22 °C70 %1010.8 hPa16.1 kmNE (40°)33.3 km/hMostly Cloudy
11:55 AM28.3 °C22.3 °C70 %1010.8 hPa16.1 kmNE (40°)31.5 km/hMostly Cloudy
11:56 AM28 °C22 °C70 %1010.8 hPa16.1 kmNE (40°)33.3 km/hScattered Clouds
12:01 PM29 °C23 °C70 %1010.8 hPa16.1 kmNE (40°)31.5 km/hMostly Cloudy
12:25 PM28 °C22 °C70 %1010.5 hPa16.1 kmNE (40°)31.5 km/hScattered Clouds
12:27 PM27 °C22 °C74 %1010.5 hPa16.1 kmNE (40°)31.5 km/hMostly Cloudy
12:48 PM25 °C19 °C69 %1010.5 hPa16.1 kmNE (40°)31.5 km/hScattered Clouds
12:55 PM25.1 °C19.2 °C70 %1010.2 hPa16.1 kmNE (40°)29.6 km/hMostly Cloudy
12:58 PM25 °C19 °C69 %1010.2 hPa16.1 kmNE (40°)25.9 km/hScattered Clouds
1:00 PM25 °C19 °C69 %1010.2 hPa16.1 kmNE (40°)27.8 km/hMostly Cloudy
1:06 PM25 °C19 °C69 %1010.2 hPa16.1 kmNNE (30°)31.5 km/h42.6 km/hScattered Clouds
1:07 PM25 °C19 °C69 %1010.2 hPa16.1 kmNNE (30°)29.6 km/h42.6 km/hMostly Cloudy
1:13 PM25 °C19 °C69 %1009.8 hPa16.1 kmNE (40°)33.3 km/hScattered Clouds
1:55 PM24.2 °C17.5 °C66 %1009.5 hPa16.1 kmNE (40°)33.3 km/hScattered Clouds
2:09 PM29 °C18 °C51 %1009.5 hPa16.1 kmNE (40°)33.3 km/hMostly Cloudy
2:30 PM25 °C19 °C69 %1009.1 hPa16.1 kmNE (40°)37 km/hScattered Clouds
2:32 PM25 °C19 °C69 %1009.1 hPa16.1 kmNE (40°)35.2 km/hMostly Cloudy
2:41 PM29 °C19 °C55 %1008.8 hPa16.1 kmNE (40°)29.6 km/hScattered Clouds
2:52 PM29 °C19 °C55 %1008.8 hPa16.1 kmNE (40°)29.6 km/hMostly Cloudy
2:55 PM29 °C18.7 °C54 %1008.8 hPa16.1 kmNE (40°)29.6 km/hMostly Cloudy
3:04 PM29 °C23 °C70 %1008.8 hPa16.1 kmNNE (30°)29.6 km/hScattered Clouds
3:15 PM29 °C23 °C70 %1008.8 hPa16.1 kmNE (40°)33.3 km/hMostly Cloudy
3:24 PM28 °C23 °C74 %1008.8 hPa16.1 kmNNE (30°)31.5 km/hMostly Cloudy
3:27 PM28 °C23 °C74 %1009.1 hPa16.1 kmNNE (30°)33.3 km/h44.4 km/hMostly Cloudy
3:55 PM27.6 °C23 °C76 %1009.1 hPa16.1 kmNNE (30°)37 km/hMostly Cloudy
4:01 PM28 °C23 °C74 %1009.5 hPa16.1 kmNE (40°)37 km/h46.3 km/hScattered Clouds
4:55 PM27.2 °C22.5 °C75 %1009.8 hPa16.1 kmNNE (30°)29.6 km/hMostly Cloudy
5:55 PM26.2 °C22.2 °C78 %1010.5 hPa16.1 kmNE (40°)31.5 km/hMostly Cloudy
6:07 PM26 °C23 °C83 %1010.5 hPa16.1 kmNE (50°)35.2 km/hMostly Cloudy
6:09 PM26 °C23 °C83 %1010.8 hPa16.1 kmENE (60°)40.7 km/h48.1 km/hOvercast
6:10 PM26 °C23 °C83 %1010.8 hPa14.5 kmENE (60°)37 km/h48.1 km/hLight Drizzle
6:23 PM25 °C23 °C89 %1010.8 hPa12.9 kmNE (50°)31.5 km/hOvercast
6:27 PM25 °C23 °C89 %1010.8 hPa16.1 kmNE (50°)27.8 km/hOvercast
6:30 PM25 °C23 °C89 %1010.8 hPa16.1 kmNE (50°)25.9 km/hOvercast
6:32 PM25 °C22 °C83 %1010.8 hPa16.1 kmNE (40°)25.9 km/hMostly Cloudy
6:39 PM24 °C22 °C89 %1011.2 hPa16.1 kmNE (40°)25.9 km/hMostly Cloudy
6:50 PM24 °C22 °C89 %1011.2 hPa16.1 kmNE (40°)24.1 km/hMostly Cloudy
6:55 PM24.4 °C22.5 °C89 %1011.2 hPa16.1 kmNE (40°)22.2 km/h0 mmMostly Cloudy
7:13 PM25 °C23 °C89 %1011.5 hPa16.1 kmNE (50°)24.1 km/hOvercast
7:25 PM25 °C23 °C89 %1011.5 hPa16.1 kmNE (50°)22.2 km/hMostly Cloudy
7:55 PM25.4 °C22.8 °C85 %1011.9 hPa16.1 kmNE (50°)25.9 km/hMostly Cloudy
8:15 PM25 °C23 °C89 %1012.2 hPa16.1 kmNE (40°)31.5 km/hOvercast
8:22 PM25 °C23 °C89 %1012.2 hPa16.1 kmNE (40°)29.6 km/hOvercast
8:52 PM26 °C23 °C83 %1012.2 hPa16.1 kmNNE (30°)22.2 km/hOvercast
8:55 PM25.9 °C23.1 °C84 %1012.2 hPa16.1 kmNE (40°)22.2 km/hOvercast
8:59 PM26 °C23 °C83 %1012.2 hPa16.1 kmNE (40°)24.1 km/hOvercast
9:01 PM26 °C23 °C83 %1012.2 hPa16.1 kmNE (40°)24.1 km/hRainRain
9:03 PM26 °C24 °C89 %1012.2 hPa16.1 kmNE (40°)33.3 km/hRainRain
9:12 PM25 °C23 °C89 %1012.2 hPa16.1 kmNNE (30°)25.9 km/hMostly Cloudy
9:17 PM25 °C23 °C89 %1012.2 hPa16.1 kmNE (40°)27.8 km/hMostly Cloudy
9:25 PM25 °C24 °C94 %1012.2 hPa16.1 kmNE (40°)25.9 km/hMostly Cloudy
9:32 PM25 °C24 °C94 %1012.2 hPa16.1 kmNE (40°)25.9 km/hMostly Cloudy
9:51 PM25 °C24 °C94 %1011.9 hPa16.1 kmNE (40°)25.9 km/hMostly Cloudy
9:55 PM25.5 °C23.9 °C91 %1011.9 hPa16.1 kmNNE (30°)31.5 km/h0 mmMostly Cloudy
9:58 PM25 °C24 °C94 %1012.2 hPa16.1 kmNE (40°)31.5 km/hMostly Cloudy
10:33 PM25 °C23 °C89 %1011.9 hPa16.1 kmNE (50°)27.8 km/hMostly Cloudy
10:55 PM25.2 °C23.1 °C88 %1011.9 hPa16.1 kmNE (40°)27.8 km/hPartly Cloudy
11:14 PM25 °C23 °C89 %1011.9 hPa16.1 kmNE (50°)24.1 km/hMostly Cloudy
11:15 PM25 °C23 °C89 %1011.9 hPa16.1 kmNE (50°)25.9 km/hScattered Clouds
11:16 PM25 °C23 °C89 %1011.9 hPa16.1 kmNE (50°)27.8 km/hMostly Cloudy
11:18 PM25 °C23 °C89 %1011.9 hPa16.1 kmNE (50°)24.1 km/hScattered Clouds
11:19 PM25 °C23 °C89 %1011.9 hPa16.1 kmNE (50°)24.1 km/hMostly Cloudy
11:23 PM25 °C23 °C89 %1011.9 hPa16.1 kmNE (50°)24.1 km/hMostly Cloudy
11:33 PM25 °C23 °C89 %1011.5 hPa16.1 kmENE (60°)22.2 km/hMostly Cloudy
11:35 PM25 °C23 °C89 %1011.5 hPa16.1 kmENE (60°)24.1 km/hMostly Cloudy
11:43 PM25 °C23 °C89 %1011.5 hPa16.1 kmENE (60°)25.9 km/hRainLight Rain
11:44 PM25 °C23 °C89 %1011.5 hPa16.1 kmENE (60°)22.2 km/hMostly Cloudy
11:55 PM25 °C23.2 °C90 %1011.5 hPa16.1 kmENE (60°)20.4 km/h0 mmMostly Cloudy
11:59 PM25 °C23 °C89 %1011.5 hPa14.5 kmENE (60°)24.1 km/hRainLight Rain
Hourly data recorded from PGUA, located 0 kilometers away from Mangilao, Guam







STORIES FROM OUR PARTNERS